Regional Weather Roundup
Issued by NWS

Home | Current Version | Previous Version | Text Only | Print | Product List | Glossary Off
Versions: 1 2 3 4 5 6 7 8 9 10 11 12 13 14 15 16 17 18 19 20 21 22 23 24 25 26 27 28 29 30 31 32 33 34 35 36 37 38 39 40 41 42 43 44 45 46 47 48 49 50

000
ASUS43 KBIS 162059
RWRND

NORTH DAKOTA REGIONAL WEATHER ROUNDUP
NATIONAL WEATHER SERVICE BISMARCK ND
400 PM CDT WED APR 16 2014

NOTE: "FAIR" INDICATES FEW OR NO CLOUDS BELOW 12,000 FEET WITH NO
SIGNIFICANT WEATHER AND/OR OBSTRUCTIONS TO VISIBILITY.


NDZ001>003-009>011-017-162200-
NORTHWEST NORTH DAKOTA

CITY           SKY/WX    TMP DP  RH WIND       PRES   REMARKS
WILLISTON      FLURRIES  28  22  78 E17       30.20R WCI  16
MINOT          CLOUDY    33  18  53 NE10      30.20R
$$

NDZ018>021-031>035-040>046-162200-
SOUTHWEST NORTH DAKOTA

CITY           SKY/WX    TMP DP  RH WIND       PRES   REMARKS
BISMARCK       CLOUDY    34  18  52 NE14      30.15R
DICKINSON      CLOUDY    29  21  72 NE10      30.10R WCI  20
GARRISON         N/A     29  20  69 NE12G17   30.18R WCI  19
HETTINGER ARPT CLOUDY    32  22  66 NE9       30.09R
$$

NDZ004>008-012>016-024-026-027-054-162200-
NORTHEAST NORTH DAKOTA

CITY           SKY/WX    TMP DP  RH WIND       PRES   REMARKS
GRAND FORKS    SUNNY     41  14  33 NE18G28   30.12R
DEVILS LAKE    SUNNY     36  10  35 NE17G24   30.17S
$$

NDZ022-023-025-028>030-036>039-047>053-162200-
SOUTHEAST NORTH DAKOTA

CITY           SKY/WX    TMP DP  RH WIND       PRES   REMARKS
FARGO          CLOUDY    36  23  59 NE16      30.10R
$$




USA.gov is the U.S. government's official web portal to all federal, state and local government web resources and services.